timestamp,surface_pressure_avg,surface_temp_avg,battery_voltage,lat,long
2021-03-25 00:09:01+00:00,245.9364,1.9,12.89,47.84626,-54.09684
2021-03-25 00:19:01+00:00,244.3031,1.9,12.65,47.84626,-54.09684
2021-03-25 00:29:01+00:00,240.3614,1.97,12.65,47.84626,-54.09684
2021-03-25 00:39:01+00:00,234.6414,1.9,12.65,47.84626,-54.09684
2021-03-25 00:49:01+00:00,232.2531,1.93,12.65,47.84626,-54.09684
2021-03-25 00:59:01+00:00,230.2181,1.97,12.65,47.84626,-54.09684
2021-03-25 01:09:01+00:00,227.0648,1.98,12.65,47.84626,-54.09684
2021-03-25 01:19:01+00:00,225.1331,1.98,12.65,47.84626,-54.09684
2021-03-25 01:29:01+00:00,223.2214,1.97,12.65,47.84626,-54.09684
2021-03-25 01:39:01+00:00,220.1698,1.95,12.65,47.84626,-54.09684
2021-03-25 01:49:01+00:00,216.7231,1.93,12.65,47.84626,-54.09684
2021-03-25 01:59:01+00:00,217.2031,1.9,12.65,47.84626,-54.09684
2021-03-25 02:09:01+00:00,215.8281,1.9,12.65,47.84626,-54.09684
2021-03-25 02:19:01+00:00,211.4464,1.9,12.65,47.84626,-54.09684
2021-03-25 02:29:01+00:00,210.3148,1.9,12.65,47.84626,-54.09684
2021-03-25 02:39:01+00:00,212.0998,1.9,12.65,47.84626,-54.09684
2021-03-25 02:49:01+00:00,212.0081,1.9,12.65,47.84626,-54.09684
2021-03-25 02:59:01+00:00,211.7215,1.9,12.65,47.84626,-54.09684
2021-03-25 03:09:01+00:00,214.3948,1.89,12.65,47.84626,-54.09684
2021-03-25 03:19:01+00:00,217.5497,1.88,12.65,47.84626,-54.09684
2021-03-25 03:29:01+00:00,218.7581,1.88,12.65,47.84626,-54.09684
2021-03-25 03:39:01+00:00,216.9198,1.88,12.65,47.84626,-54.09684
2021-03-25 03:49:01+00:00,220.5948,1.86,12.65,47.84626,-54.09684
2021-03-25 03:59:01+00:00,223.2981,1.82,12.65,47.84626,-54.09684
2021-03-25 04:09:01+00:00,223.3748,1.82,12.65,47.84626,-54.09684
2021-03-25 04:19:01+00:00,222.4965,1.85,12.57,47.84626,-54.09684
2021-03-25 04:29:01+00:00,227.9315,1.85,12.57,47.84626,-54.09684
2021-03-25 04:39:01+00:00,232.7181,1.8,12.57,47.84626,-54.09684
2021-03-25 04:49:01+00:00,231.9365,1.8,12.57,47.84626,-54.09684
2021-03-25 04:59:01+00:00,229.4514,1.8,12.57,47.84626,-54.09684
2021-03-25 05:09:01+00:00,233.5731,1.8,12.57,47.84626,-54.09684
2021-03-25 05:19:01+00:00,234.7964,1.8,12.57,47.84626,-54.09684
2021-03-25 05:29:01+00:00,236.2714,1.8,12.57,47.84626,-54.09684
2021-03-25 05:39:01+00:00,242.4064,1.8,12.57,47.84626,-54.09684
2021-03-25 05:49:01+00:00,251.1581,1.79,12.57,47.84626,-54.09684
2021-03-25 05:59:01+00:00,257.3714,1.79,12.57,47.84626,-54.09684
2021-03-25 06:09:01+00:00,260.7948,1.79,12.57,47.84626,-54.09684
2021-03-25 06:19:01+00:00,268.2614,1.79,12.57,47.84626,-54.09684
2021-03-25 06:29:01+00:00,275.4114,1.78,12.57,47.84626,-54.09684
2021-03-25 06:39:01+00:00,278.5981,1.74,12.57,47.84626,-54.09684
2021-03-25 06:49:01+00:00,280.4714,1.75,12.57,47.84626,-54.09684
2021-03-25 06:59:01+00:00,289.408,1.75,12.57,47.84626,-54.09684
2021-03-25 07:09:01+00:00,295.5064,1.7,12.57,47.84626,-54.09684
2021-03-25 07:19:01+00:00,296.6414,1.7,12.49,47.84626,-54.09684
2021-03-25 07:29:01+00:00,299.1064,1.7,12.49,47.84626,-54.09684
2021-03-25 07:39:01+00:00,308.6146,1.7,12.49,47.84626,-54.09684
2021-03-25 07:49:01+00:00,315.3112,1.7,12.49,47.84626,-54.09684
2021-03-25 07:59:01+00:00,314.4481,1.7,12.49,47.84626,-54.09684
2021-03-25 08:09:01+00:00,320.7313,1.7,12.49,47.84626,-54.09684
2021-03-25 08:19:01+00:00,329.7863,1.7,12.49,47.84626,-54.09684
2021-03-25 08:29:01+00:00,327.9813,1.7,12.49,47.84626,-54.09684
2021-03-25 08:39:01+00:00,322.9213,1.7,12.49,47.84626,-54.09684
2021-03-25 08:49:01+00:00,320.8463,1.72,12.49,47.84626,-54.09684
2021-03-25 08:59:01+00:00,317.053,1.72,12.49,47.84626,-54.09684
2021-03-25 09:09:01+00:00,314.1412,1.7,12.49,47.84626,-54.09684
2021-03-25 09:19:01+00:00,317.4497,1.7,12.49,47.84626,-54.09684
2021-03-25 09:29:01+00:00,323.3997,1.7,12.49,47.84626,-54.09684
2021-03-25 09:39:01+00:00,329.61300000000006,1.7,12.49,47.84626,-54.09684
2021-03-25 09:49:01+00:00,327.0114,1.7,12.49,47.84626,-54.09684
2021-03-25 09:59:01+00:00,320.0129,1.7,12.49,47.84626,-54.09684
2021-03-25 10:09:01+00:00,315.2531,1.7,12.49,47.84626,-54.09684
2021-03-25 10:19:01+00:00,316.2664,1.7,12.73,47.84626,-54.09684
2021-03-25 10:29:01+00:00,308.0281,1.7,12.73,47.84626,-54.09684
2021-03-25 10:39:01+00:00,302.9564,1.7,12.73,47.84626,-54.09684
2021-03-25 10:49:01+00:00,306.483,1.7,12.73,47.84626,-54.09684
2021-03-25 10:59:01+00:00,307.2863,1.7,12.73,47.84626,-54.09684
2021-03-25 11:09:01+00:00,295.9864,1.7,12.73,47.84626,-54.09684
2021-03-25 11:19:01+00:00,287.603,1.7,13.53,47.84626,-54.09684
2021-03-25 11:29:01+00:00,284.2131,1.7,13.53,47.84626,-54.09684
2021-03-25 11:39:01+00:00,281.763,1.7,13.53,47.84626,-54.09684
2021-03-25 11:49:01+00:00,276.1714,1.7,13.53,47.84626,-54.09684
2021-03-25 11:59:01+00:00,274.803,1.7,13.53,47.84626,-54.09684
2021-03-25 12:09:01+00:00,270.2914,1.7,13.53,47.84626,-54.09684
2021-03-25 12:19:01+00:00,261.8781,1.7,14.4,47.84626,-54.09684
2021-03-25 12:29:01+00:00,255.8614,1.7,14.4,47.84626,-54.09684
2021-03-25 12:39:01+00:00,252.058,1.7,14.4,47.84626,-54.09684
2021-03-25 12:49:01+00:00,244.2231,1.7,14.4,47.84626,-54.09684
2021-03-25 12:59:01+00:00,236.9464,1.7,14.4,47.84626,-54.09684
2021-03-25 13:09:01+00:00,234.5998,1.7,14.4,47.84626,-54.09684
2021-03-25 13:19:01+00:00,230.6147,1.71,14.64,47.84626,-54.09684
2021-03-25 13:29:01+00:00,226.4781,1.72,14.64,47.84626,-54.09684
2021-03-25 13:39:01+00:00,223.6198,1.76,14.64,47.84626,-54.09684
2021-03-25 13:49:01+00:00,217.7014,1.77,14.64,47.84626,-54.09684
2021-03-25 13:59:01+00:00,211.7348,1.79,14.64,47.84626,-54.09684
2021-03-25 14:09:01+00:00,211.3581,1.8,14.64,47.84626,-54.09684
2021-03-25 14:19:01+00:00,211.9398,1.8,14.64,47.84626,-54.09684
2021-03-25 14:29:01+00:00,206.9148,1.8,14.64,47.84626,-54.09684
2021-03-25 14:39:01+00:00,202.1614,1.8,14.64,47.84626,-54.09684
2021-03-25 14:49:01+00:00,197.7598,1.8,14.64,47.84626,-54.09684
2021-03-25 14:59:01+00:00,194.1965,1.8,14.64,47.84626,-54.09684
2021-03-25 15:09:01+00:00,193.1181,1.8,14.64,47.84626,-54.09684
2021-03-25 15:19:01+00:00,191.5382,1.8,14.56,47.84626,-54.09684
2021-03-25 15:29:01+00:00,188.4965,1.83,14.56,47.84626,-54.09684
2021-03-25 15:39:01+00:00,187.4182,1.89,14.56,47.84626,-54.09684
2021-03-25 15:49:01+00:00,190.5881,1.9,14.56,47.84626,-54.09684
2021-03-25 15:59:01+00:00,193.2481,1.87,14.56,47.84626,-54.09684
2021-03-25 16:09:01+00:00,189.1248,1.9,14.56,47.84626,-54.09684
2021-03-25 16:19:01+00:00,185.0015,1.9,14.32,47.84626,-54.09684
2021-03-25 16:29:01+00:00,192.4565,1.9,14.32,47.84626,-54.09684
2021-03-25 16:39:01+00:00,195.5381,1.9,14.32,47.84626,-54.09684
2021-03-25 16:49:01+00:00,191.3198,1.94,14.32,47.84626,-54.09684
2021-03-25 16:59:01+00:00,194.7381,1.94,14.32,47.84626,-54.09684
2021-03-25 17:09:01+00:00,200.6714,1.9,14.32,47.84626,-54.09684
2021-03-25 17:19:01+00:00,197.5731,1.9,14.24,47.84626,-54.09684
2021-03-25 17:29:01+00:00,200.0564,1.9,14.24,47.84626,-54.09684
2021-03-25 17:39:01+00:00,208.8831,1.89,14.24,47.84626,-54.09684
2021-03-25 17:49:01+00:00,210.1514,1.9,14.24,47.84626,-54.09684
2021-03-25 17:59:01+00:00,213.2031,1.9,14.24,47.84626,-54.09684
2021-03-25 18:09:01+00:00,223.5014,1.9,14.24,47.84626,-54.09684
2021-03-25 18:19:01+00:00,232.4731,1.83,14.16,47.84626,-54.09684
2021-03-25 18:29:01+00:00,239.433,1.8,14.16,47.84626,-54.09684
2021-03-25 18:39:01+00:00,246.3781,1.8,14.16,47.84626,-54.09684
2021-03-25 18:49:01+00:00,249.7047,1.8,14.16,47.84626,-54.09684
2021-03-25 18:59:01+00:00,248.9681,1.8,14.16,47.84626,-54.09684
2021-03-25 19:09:01+00:00,253.3697,1.8,14.16,47.84626,-54.09684
2021-03-25 19:19:01+00:00,261.6064,1.8,14.0,47.84626,-54.09684
2021-03-25 19:29:01+00:00,263.7298,1.8,14.0,47.84626,-54.09684
2021-03-25 19:39:01+00:00,267.4714,1.8,14.0,47.84626,-54.09684
2021-03-25 19:49:01+00:00,280.2897,1.8,14.0,47.84626,-54.09684
2021-03-25 19:59:01+00:00,289.0647,1.8,14.0,47.84626,-54.09684
2021-03-25 20:09:01+00:00,287.473,1.8,14.0,47.84626,-54.09684
2021-03-25 20:19:01+00:00,284.2181,1.9,13.68,47.84626,-54.09684
2021-03-25 20:29:01+00:00,292.418,1.9,13.68,47.84626,-54.09684
2021-03-25 20:39:01+00:00,292.0831,1.9,13.68,47.84626,-54.09684
2021-03-25 20:49:01+00:00,292.8931,1.9,13.68,47.84626,-54.09684
2021-03-25 20:59:01+00:00,296.9197,1.8,13.68,47.84626,-54.09684
2021-03-25 21:09:01+00:00,302.0114,1.8,13.68,47.84626,-54.09684
2021-03-25 21:19:01+00:00,295.0063,1.84,13.37,47.84626,-54.09684
2021-03-25 21:29:01+00:00,298.373,1.82,13.37,47.84626,-54.09684
2021-03-25 21:39:01+00:00,303.8796,1.8,13.37,47.84626,-54.09684
2021-03-25 21:49:01+00:00,304.573,1.8,13.37,47.84626,-54.09684
2021-03-25 21:59:01+00:00,296.2197,1.82,13.37,47.84626,-54.09684
2021-03-25 22:09:01+00:00,297.1863,1.89,13.37,47.84626,-54.09684
2021-03-25 22:19:01+00:00,300.653,1.87,12.97,47.84626,-54.09684
2021-03-25 22:29:01+00:00,298.6396,1.8,12.97,47.84626,-54.09684
2021-03-25 22:39:01+00:00,292.0914,1.8,12.97,47.84626,-54.09684
2021-03-25 22:49:01+00:00,292.4764,1.8,12.97,47.84626,-54.09684
2021-03-25 22:59:01+00:00,297.4614,1.8,12.97,47.84626,-54.09684
2021-03-25 23:09:01+00:00,294.3697,1.83,12.97,47.84626,-54.09684
2021-03-25 23:19:01+00:00,290.5197,1.9,12.73,47.84626,-54.09684
2021-03-25 23:29:01+00:00,289.0797,1.9,12.73,47.84626,-54.09684
2021-03-25 23:39:01+00:00,279.4164,1.9,12.73,47.84626,-54.09684
2021-03-25 23:49:01+00:00,263.903,1.98,12.73,47.84626,-54.09684
2021-03-25 23:59:01+00:00,262.1598,2.0,12.73,47.84626,-54.09684
